Weather in Raisio

Finland     60°28′21″N   22°09′42″E
temp.,
°C
wind,
m/s
gust,
m/s
humid.,
%
clouds,
%
prec.,
mm/h
press.,
hPa
HPBL,
m
19 may, wed
wed1900:00+11nnw4978100 0.1 1005267
03:00+10nnw41175100 0.3 1005383
06:00+10nnw51292100 2.7 1003485
09:00+10nnw51290100 3.2 1003723
12:00+10nw51292100 1.2 1004678
15:00+9nnw51292100 2.7 1004639
18:00+9nw41292100 0.8 1003593
21:00+10nw41087100 0.8 1003570
20 may, thu
thu2000:00+8nw41190100 0.0 1004357
03:00+7nw3108798 0.0 1005318
06:00+7w238695 0.0 100672
09:00+11w247366 0.0 1007303
12:00+15w345395 0.0 10071098
15:00+13w5860100 0.0 1006428
18:00+14wnw3558100 0.0 1005550
21:00+10w3676100 0.0 1005195
21 may, fri
fri2100:00+8w2582100 0.0 1003121
03:00+8nw1278100 0.0 100264
06:00+8wsw3779100 0.1 1001190
09:00+10w51068100 0.1 1000469
12:00+11wsw61070100 0.0 1001796
15:00+10wsw6971100 0.0 1002676
18:00+8wsw5776100 0.0 1003456
21:00+8sw3789100 0.0 1003322
22 may, sat
sat2200:00+7sw499191 0.0 1003365
03:00+7ssw4109619 0.1 1003326
06:00+7s4109410 0.0 1002354
09:00+9ssw4785100 0.0 1003434
12:00+10ssw478397 0.0 1003552
15:00+10ssw5884100 0.1 1004605
18:00+10ssw598582 0.0 1004618
21:00+9s379270 0.0 1004370
23 may, sun
sun2300:00+7sse379822 0.0 1005186
03:00+6se259882 0.0 1004104
06:00+7ese2597100 0.0 1004140
09:00+11se238299 0.0 1003510
12:00+12sw2279100 0.6 1003543
15:00+11wsw348199 1.0 1002416
18:00+11w3476100 0.1 1002372
21:00+9wsw248687 0.2 1003158